Regional Weather Roundup
Issued by NWS

Home | Current Version | Previous Version | Text Only | Print | Product List | Glossary On
Versions: 1 2 3 4 5 6 7 8 9 10 11 12 13 14 15 16 17 18 19 20 21 22 23 24 25 26 27 28 29 30 31 32 33 34 35 36 37 38 39 40 41 42 43 44 45 46 47 48 49
000
ASUS46 KPQR 021010
RWROR

OREGON REGIONAL WEATHER ROUNDUP
NATIONAL WEATHER SERVICE PORTLAND OR
300 AM PDT THU JUL 02 2015

NOTE: "FAIR" INDICATES FEW OR NO CLOUDS BELOW 12,000 FEET WITH
NO SIGNIFICANT WEATHER AND/OR OBSTRUCTIONS TO VISIBILITY.

ORZ001>013-021100-
NORTHWEST OREGON


CITY           SKY/WX    TMP DP  RH WIND       PRES   REMARKS
ASTORIA        CLOUDY    56  55  97 S5        30.00S
PORTLAND       CLEAR     71  58  63 CALM      29.95R
VANCOUVER WA   CLEAR     66  55  67 CALM      29.94R
SCAPPOOSE      CLEAR     70  54  56 N6        29.94R
HILLSBORO      CLEAR     62  54  74 CALM      29.94S
AURORA         CLEAR     67  57  70 CALM      29.96R
MCMINNVILLE    CLEAR     64  55  72 W5        29.96R
SALEM          CLEAR     67  56  67 W3        29.94R
CORVALLIS      CLEAR     63  54  72 NW7       29.97R
EUGENE         CLEAR     64  56  75 CALM      29.95S
$$

ORZ021-028-021100-
SOUTHWEST OREGON


CITY           SKY/WX    TMP DP  RH WIND       PRES   REMARKS
NORTH BEND     CLOUDY    57  57 100 N10       30.01F
BROOKINGS      FOG       54  54 100 CALM      29.95S VSB<1/4
ROSEBURG       CLEAR     73  57  57 CALM      29.94F
SEXTON SUMMIT  CLEAR     70  51  51 N10       30.09F
MEDFORD        CLEAR     75  57  53 NE6       29.93S
$$

ORZ014>016-041-021100-
COLUMBIA GORGE


CITY           SKY/WX    TMP DP  RH WIND       PRES   REMARKS
TROUTDALE      CLEAR     64  58  80 E3        29.93S
THE DALLES     CLEAR     78  56  46 NW15      29.89R
$$

ORZ029>031-041-044-049-050-061>064-502-503-505>511-021100-
EASTERN OREGON


CITY           SKY/WX    TMP DP  RH WIND       PRES   REMARKS
REDMOND        CLEAR     64  47  53 S3        30.04S
BEND             N/A    N/A N/A N/A MISG        N/A
PRINEVILLE     CLEAR     64  41  42 S3        30.06R
KLAMATH FALLS  PTCLDY    66  52  60 CALM      30.11S
LAKEVIEW       CLEAR     59  45  58 NW9       30.15S
HERMISTON      CLEAR     64  47  53 S3        29.89S
PENDLETON      CLEAR     69  46  43 S9        29.94S
MEACHAM        CLEAR     47  43  86 CALM      30.11S
LA GRANDE      CLEAR     57  37  47 CALM      30.04S
BAKER CITY     CLEAR     55  48  77 S6        30.07S
BURNS          CLEAR     67  43  41 CALM      30.11S
ROME             N/A     73  41  31 NE9       30.06R
ONTARIO        CLEAR     79  43  27 N9        29.95S
$$


USA.gov is the U.S. government's official web portal to all federal, state and local government web resources and services.